• Join FlightAware (Why Join?)
  • Login
  • US Flag GB Flag 
05:45 EDT


 

Airport Tracker/Info


-or-


 

Live Flight TrackerFlight Track Log ✈ AMF1026 ✈ 26-Jun-2013 ✈ KALB - KCVG

Flight Track Log - Related Links

Times and Time Zones

All times are in EDT time to prevent confusion due to time zone crossing. See the AMF1026 flight status page for this flight to view local times or setup timezone preferences in your user account.

Time Position Orientation Groundspeed Altitude Reporting Facility
EDT Latitude Longitude Course Direction KTS MPH feet Rate Location/Type
21:15 42.7236 -73.8081 253° West 147 169 1,000  Level Boston Center
21:17 42.7103 -73.8669 253° West 202 232 2,700 1,500 Climbing Boston Center
21:17 42.7181 -73.9125 283° West 175 201 3,700 1,500 Climbing Boston Center
21:18 42.7319 -73.9750 287° West 187 215 5,100 1,440 Climbing Boston Center
21:19 42.7433 -74.0403 283° West 187 215 6,600 1,260 Climbing Boston Center
21:20 42.7467 -74.1081 274° West 182 209 7,700 1,200 Climbing Boston Center
21:21 42.7456 -74.1844 269° West 182 209 9,000 1,140 Climbing Boston Center
21:22 42.7444 -74.2553 269° West 187 215 10,000 1,080 Climbing Boston Center
21:23 42.7436 -74.3003 269° West 187 215 11,200 960 Climbing Boston Center
21:24 42.7194 -74.3844 249° West 187 215 12,000 360 Climbing Boston Center
21:25 42.6867 -74.4681 242° Southwest 220 253 12,000  Level Boston Center
21:26 42.6561 -74.5406 240° Southwest 246 283 12,000  Level Boston Center
21:27 42.6189 -74.6325 241° Southwest 251 289 12,000  Level Boston Center
21:28 42.5925 -74.7019 243° Southwest 256 295 12,000  Level Boston Center
21:29 42.5550 -74.8078 244° Southwest 261 300 12,000  Level Boston Center
21:30 42.5219 -74.8939 243° Southwest 268 308 12,000  Level Boston Center
21:31 42.5053 -74.9889 257° West 268 308 12,000  Level Boston Center
21:32 42.4886 -75.0811 256° West 263 303 12,000  Level Boston Center
21:33 42.4764 -75.1539 257° West 263 303 12,000  Level Boston Center
21:34 42.4589 -75.2714 259° West 258 297 12,000  Level Boston Center
21:35 42.4275 -75.3572 244° Southwest 263 303 12,000  Level Boston Center
21:37 42.3514 -75.5097 236° Southwest 253 291 12,000  Level New York Center
21:38 42.3125 -75.5939 238° Southwest 259 298 12,000 -60 Level New York Center
21:39 42.2717 -75.6778 237° Southwest 265 305 11,900  Descending New York Center
21:40 42.2328 -75.7617 238° Southwest 265 305 12,000  Climbing New York Center
21:41 42.1936 -75.8483 239° Southwest 265 305 12,000 -60 Level New York Center
21:42 42.1733 -75.9361 253° West 260 299 11,900  Descending New York Center
21:43 42.1647 -76.0333 263° West 260 299 12,000  Climbing New York Center
21:44 42.1564 -76.1306 263° West 260 299 12,000  Level New York Center
21:45 42.1375 -76.2269 255° West 266 306 12,000 -60 Level New York Center
21:46 42.1064 -76.3139 244° Southwest 266 306 11,900  Descending New York Center
21:47 42.0750 -76.4033 245° Southwest 266 306 12,000  Climbing New York Center
21:48 42.0436 -76.4931 245° Southwest 266 306 12,000  Level New York Center
21:49 42.0167 -76.5800 247° West 271 312 12,000  Level New York Center
21:50 41.9831 -76.6692 243° Southwest 271 312 12,000  Level New York Center
21:51 41.9514 -76.7583 244° Southwest 271 312 12,000  Level New York Center
21:52 41.9200 -76.8475 245° Southwest 271 312 12,000  Level New York Center
21:53 41.8919 -76.9400 248° West 273 314 12,000  Level Cleveland Center
21:54 41.8608 -77.0169 242° Southwest 260 299 12,000  Level Cleveland Center
21:55 41.8303 -77.1050 245° Southwest 260 299 12,000  Level Cleveland Center
21:56 41.7975 -77.1933 244° Southwest 260 299 12,000  Level Cleveland Center
21:57 41.7644 -77.2814 243° Southwest 260 299 12,000  Level Cleveland Center
21:58 41.7314 -77.3664 242° Southwest 260 299 12,000 -60 Level Cleveland Center
21:59 41.7006 -77.4542 245° Southwest 260 299 11,900  Descending Cleveland Center
22:00 41.6594 -77.5508 240° Southwest 265 305 12,100  Climbing Cleveland Center
22:01 41.6283 -77.6356 244° Southwest 265 305 12,000 -60 Descending Cleveland Center
22:02 41.5950 -77.7231 243° Southwest 270 311 12,000  Level Cleveland Center
22:03 41.5617 -77.8136 244° Southwest 270 311 12,000  Level Cleveland Center
22:04 41.5306 -77.9008 245° Southwest 265 305 12,100  Climbing Cleveland Center
22:05 41.4969 -77.9881 243° Southwest 265 305 12,100 -60 Level Cleveland Center
22:06 41.4678 -78.0753 246° West 265 305 12,000 -60 Descending Cleveland Center
22:07 41.4383 -78.1622 246° West 265 305 12,000  Level Cleveland Center
22:08 41.4131 -78.2492 249° West 265 305 12,100  Climbing Cleveland Center
22:09 41.3836 -78.3386 246° West 260 299 12,000 -60 Descending Cleveland Center
22:10 41.3583 -78.4308 250° West 260 299 12,000  Level Cleveland Center
22:11 41.3328 -78.5203 249° West 260 299 12,000  Level Cleveland Center
22:12 41.3008 -78.6069 244° Southwest 260 299 12,100  Climbing Cleveland Center
22:13 41.2753 -78.6989 250° West 260 299 12,100  Level Cleveland Center
22:14 41.2497 -78.7881 249° West 255 293 12,100  Level Cleveland Center
22:15 41.2219 -78.8769 247° West 255 293 12,100 -60 Level Cleveland Center
22:16 41.1981 -78.9578 249° West 255 293 12,000  Descending Cleveland Center
22:17 41.1722 -79.0439 248° West 255 293 12,100  Climbing Cleveland Center
22:18 41.1442 -79.1356 248° West 255 293 12,100 -60 Level Cleveland Center
22:19 41.1183 -79.2381 252° West 260 299 12,000 -120 Descending Cleveland Center
22:20 41.0922 -79.3267 249° West 265 305 11,900 -60 Descending Cleveland Center
22:21 41.0661 -79.4128 248° West 265 305 11,900  Level Cleveland Center
22:22 41.0397 -79.5011 248° West 265 305 12,000  Climbing Cleveland Center
22:23 41.0133 -79.5897 248° West 260 299 11,900 -60 Descending Cleveland Center
22:24 40.9869 -79.6781 248° West 260 299 11,900  Level Cleveland Center
22:25 40.9586 -79.7664 247° West 260 299 12,000  Climbing Cleveland Center
22:26 40.9319 -79.8547 248° West 260 299 11,900 -60 Descending Cleveland Center
22:27 40.9075 -79.9458 250° West 260 299 11,900  Level Cleveland Center
22:28 40.8789 -80.0339 247° West 260 299 12,000  Climbing Cleveland Center
22:29 40.8542 -80.1219 250° West 271 312 12,000  Level Cleveland Center
22:30 40.8275 -80.2100 248° West 277 319 12,000 -60 Level Cleveland Center
22:31 40.7964 -80.2950 244° Southwest 271 312 11,900  Descending Cleveland Center
22:32 40.7569 -80.3667 234° Southwest 265 305 12,000  Climbing Cleveland Center
22:33 40.7111 -80.4433 232° Southwest 270 311 12,000  Level Cleveland Center
22:34 40.6675 -80.5147 231° Southwest 270 311 12,000 -60 Level Cleveland Center
22:35 40.6239 -80.5914 233° Southwest 270 311 11,900 -60 Descending Cleveland Center
22:36 40.5758 -80.6650 229° Southwest 258 297 11,900 -540 Level Cleveland Center
22:37 40.5297 -80.7389 231° Southwest 258 297 10,900 -960 Descending Cleveland Center
22:38 40.4839 -80.8178 233° Southwest 263 303 10,000 -900 Descending Cleveland Center
22:39 40.4419 -80.8942 234° Southwest 269 310 9,100 -960 Descending Cleveland Center
22:40 40.4022 -80.9675 235° Southwest 274 315 8,100 -960 Descending Cleveland Center
22:41 40.3600 -81.0436 234° Southwest 274 315 7,200 -900 Descending Cleveland Center
22:42 40.3203 -81.1222 236° Southwest 268 308 6,400 -600 Descending Cleveland Center
22:43 40.2761 -81.1900 230° Southwest 268 308 6,000 -240 Descending Cleveland Center
22:44 40.2192 -81.2847 232° Southwest 246 283 6,000 -60 Level Indianapolis Center
22:45 40.1819 -81.3417 229° Southwest 244 281 5,900 -60 Descending Indianapolis Center
22:46 40.1506 -81.4339 246° West 232 267 5,900  Level Indianapolis Center
22:47 40.1361 -81.5097 256° West 217 250 5,900  Level Indianapolis Center
22:48 40.1319 -81.5914 266° West 224 258 5,900  Level Indianapolis Center
22:49 40.1131 -81.6756 254° West 240 276 5,900  Level Indianapolis Center
22:50 40.0867 -81.7608 248° West 249 287 5,900  Level Indianapolis Center
22:51 40.0617 -81.8375 247° West 247 284 5,900  Level Indianapolis Center
22:52 40.0356 -81.9228 248° West 251 289 5,900  Level Indianapolis Center
22:53 40.0081 -82.0075 247° West 250 288 5,900  Level Indianapolis Center
22:54 39.9800 -82.0911 246° West 251 289 5,900  Level Indianapolis Center
22:56 39.9436 -82.2022 247° West 253 291 6,000  Climbing Indianapolis Center
22:56 39.9256 -82.2631 249° West 255 293 6,000  Level Indianapolis Center
22:57 39.8933 -82.3478 244° Southwest 258 297 6,000  Level Indianapolis Center
22:59 39.8628 -82.4497 249° West 258 297 6,000  Level Indianapolis Center
23:00 39.8350 -82.5364 247° West 257 296 6,000  Level Indianapolis Center
23:01 39.8103 -82.6233 250° West 255 293 6,000  Level Indianapolis Center
23:02 39.7819 -82.7103 247° West 258 297 6,000  Level Indianapolis Center
23:03 39.7581 -82.7969 250° West 255 293 6,000  Level Indianapolis Center
23:04 39.7344 -82.8825 250° West 254 292 6,000  Level Indianapolis Center
23:05 39.7025 -82.9692 244° Southwest 254 292 6,000  Level Indianapolis Center
23:06 39.6706 -83.0525 244° Southwest 255 293 6,000  Level Indianapolis Center
23:07 39.6397 -83.1344 244° Southwest 259 298 6,000  Level Indianapolis Center
23:08 39.6128 -83.2206 248° West 260 299 6,000  Level Indianapolis Center
23:09 39.5850 -83.3114 248° West 257 296 6,000  Level Indianapolis Center
23:10 39.5606 -83.3956 249° West 255 293 6,000  Level Indianapolis Center
23:11 39.5333 -83.4789 247° West 253 291 6,000  Level Indianapolis Center
23:12 39.5033 -83.5753 248° West 257 296 6,000  Level Indianapolis Center
23:13 39.4786 -83.6533 248° West 254 292 6,000  Level Indianapolis Center
23:14 39.4494 -83.7411 247° West 255 293 6,000  Level Indianapolis Center
23:15 39.4247 -83.8256 249° West 252 290 6,000  Level Indianapolis Center
23:16 39.3961 -83.9081 246° West 250 288 6,000  Level Indianapolis Center
23:17 39.3608 -83.9878 240° Southwest 251 289 6,000  Level Indianapolis Center
23:18 39.3314 -84.0686 245° Southwest 250 288 6,000  Level Indianapolis Center
23:19 39.3222 -84.1603 263° West 252 290 6,000  Level Indianapolis Center
23:20 39.3117 -84.2511 261° West 253 291 6,000  Level Indianapolis Center
23:21 39.2983 -84.3378 259° West 248 285 6,000  Level Indianapolis Center
23:22 39.2881 -84.4158 260° West 226 260 6,000  Level Indianapolis Center
23:23 39.2764 -84.4972 260° West 226 260 6,000 -360 Level Indianapolis Center
23:24 39.2675 -84.5700 261° West 211 243 5,300 -1,020 Descending Indianapolis Center
23:25 39.2575 -84.6344 259° West 191 220 4,000 -840 Descending Indianapolis Center
23:26 39.2375 -84.6922 246° West 184 212 3,600 -660 Descending Indianapolis Center
23:28 39.1167 -84.6667 171° South 129 148 1,900 -720 Descending Cincinnati TRACON
23:29 39.0833 -84.6667 180° South 122 140 1,300 -600 Descending Cincinnati TRACON
23:31 39.0488 -84.6678 176° South  Level Estimated